| time (UTC) | temp C | wind direction | speed KPH | gust KPH | rain 1hr cm | rain 24hr cm | rain mn cm | humidity % | barometer mb |
| 20260507041343 | 27 | 147 | 6.4 | 6.4 | 0.00 | 0.00 | 0.00 | 87 | 1011.4 |
| 20260507040840 | 27 | 62 | 4.8 | 8.0 | 0.00 | 0.00 | 0.00 | 87 | 1011.3 |
| 20260507040336 | 27 | 113 | 3.2 | 6.4 | 0.00 | 0.00 | 0.00 | 87 | 1011.4 |
| 20260507035832 | 27 | 97 | 3.2 | 6.4 | 0.00 | 0.00 | 0.00 | 87 | 1011.2 |
| 20260507035328 | 27 | 90 | 4.8 | 4.8 | 0.00 | 0.00 | 0.00 | 87 | 1010.9 |
| 20260507034826 | 27 | 36 | 3.2 | 8.0 | 0.00 | 0.00 | 0.00 | 86 | 1011.0 |
| 20260507034322 | 27 | 33 | 1.6 | 6.4 | 0.00 | 0.00 | 0.00 | 86 | 1011.1 |
| 20260507033820 | 28 | 90 | 3.2 | 6.4 | 0.00 | 0.00 | 0.00 | 85 | 1011.0 |
| 20260507033318 | 28 | 91 | 3.2 | 6.4 | 0.00 | 0.00 | 0.00 | 85 | 1010.9 |
| 20260507032815 | 28 | 132 | 3.2 | 4.8 | 0.00 | 0.00 | 0.00 | 85 | 1011.0 |
| 20260507032311 | 28 | 13 | 1.6 | 6.4 | 0.00 | 0.00 | 0.00 | 84 | 1010.9 |
| 20260507031808 | 28 | 146 | 4.8 | 4.8 | 0.00 | 0.00 | 0.00 | 83 | 1010.7 |
| 20260507031304 | 28 | 56 | 0.0 | 6.4 | 0.00 | 0.00 | 0.00 | 83 | 1010.6 |
| 20260507030801 | 28 | 46 | 3.2 | 6.4 | 0.00 | 0.00 | 0.00 | 82 | 1010.5 |
| 20260507030258 | 29 | 51 | 3.2 | 6.4 | 0.00 | 0.00 | 0.00 | 81 | 1010.6 |
| 20260507025755 | 29 | 145 | 4.8 | 9.7 | 0.00 | 0.00 | 0.00 | 81 | 1010.3 |
| 20260507025253 | 29 | 142 | 1.6 | 6.4 | 0.00 | 0.00 | 0.00 | 81 | 1010.2 |
| 20260507024751 | 29 | 118 | 0.0 | 6.4 | 0.00 | 0.00 | 0.00 | 80 | 1009.9 |
| 20260507024247 | 30 | 118 | 4.8 | 9.7 | 0.00 | 0.00 | 0.00 | 80 | 1010.0 |
| 20260507023743 | 30 | 142 | 12.9 | 20.9 | 0.00 | 0.00 | 0.00 | 80 | 1009.8 |
| 20260507023240 | 30 | 133 | 4.8 | 4.8 | 0.00 | 0.00 | 0.00 | 80 | 1009.6 |
| 20260507022737 | 30 | 136 | 3.2 | 6.4 | 0.00 | 0.00 | 0.00 | 79 | 1009.5 |
| 20260507022233 | 30 | 57 | 3.2 | 6.4 | 0.00 | 0.00 | 0.00 | 78 | 1009.3 |
| 20260507021730 | 30 | 104 | 4.8 | 6.4 | 0.00 | 0.00 | 0.00 | 77 | 1009.3 |
| 20260507021225 | 30 | 135 | 12.9 | 14.5 | 0.00 | 0.00 | 0.00 | 76 | 1009.2 |
| 20260507020724 | 30 | 119 | 6.4 | 19.3 | 0.00 | 0.00 | 0.00 | 76 | 1009.1 |
| 20260507020220 | 30 | 128 | 6.4 | 16.1 | 0.00 | 0.00 | 0.00 | 76 | 1009.0 |
| 20260507015718 | 30 | 112 | 4.8 | 14.5 | 0.00 | 0.00 | 0.00 | 76 | 1008.8 |
| 20260507015215 | 31 | 145 | 8.0 | 14.5 | 0.00 | 0.00 | 0.00 | 76 | 1008.9 |
| 20260507014711 | 31 | 121 | 4.8 | 14.5 | 0.00 | 0.00 | 0.00 | 76 | 1008.8 |
| 20260507014208 | 31 | 126 | 8.0 | 12.9 | 0.00 | 0.00 | 0.00 | 76 | 1008.4 |
| 20260507013704 | 31 | 119 | 4.8 | 14.5 | 0.00 | 0.00 | 0.00 | 76 | 1008.4 |
| 20260507013202 | 31 | 110 | 6.4 | 9.7 | 0.00 | 0.00 | 0.00 | 75 | 1008.4 |
| 20260507012659 | 31 | 133 | 4.8 | 11.3 | 0.00 | 0.00 | 0.00 | 75 | 1008.2 |
| 20260507012154 | 31 | 50 | 6.4 | 9.7 | 0.00 | 0.00 | 0.00 | 75 | 1008.2 |
| 20260507011652 | 31 | 70 | 6.4 | 9.7 | 0.00 | 0.00 | 0.00 | 75 | 1008.1 |
| 20260507011148 | 31 | 134 | 9.7 | 19.3 | 0.00 | 0.00 | 0.00 | 74 | 1007.9 |
| 20260507010643 | 31 | 137 | 3.2 | 12.9 | 0.00 | 0.00 | 0.00 | 74 | 1007.8 |
| 20260507010139 | 31 | 104 | 4.8 | 12.9 | 0.00 | 0.00 | 0.00 | 74 | 1007.6 |
| 20260507005637 | 31 | 127 | 4.8 | 14.5 | 0.00 | 0.00 | 0.00 | 74 | 1007.5 |
| 20260507005133 | 31 | 129 | 6.4 | 11.3 | 0.00 | 0.00 | 0.00 | 73 | 1007.4 |
| 20260507004630 | 32 | 70 | 9.7 | 9.7 | 0.00 | 0.00 | 0.00 | 73 | 1007.2 |
| 20260507004128 | 32 | 95 | 6.4 | 17.7 | 0.00 | 0.00 | 0.00 | 73 | 1007.2 |
| 20260507003624 | 32 | 99 | 6.4 | 9.7 | 0.00 | 0.00 | 0.00 | 72 | 1007.3 |
| 20260507003119 | 32 | 136 | 9.7 | 22.5 | 0.00 | 0.00 | 0.00 | 71 | 1007.1 |
| 20260507002615 | 32 | 120 | 16.1 | 16.1 | 0.00 | 0.00 | 0.00 | 71 | 1007.1 |
| 20260507002111 | 32 | 70 | 11.3 | 14.5 | 0.00 | 0.00 | 0.00 | 71 | 1007.0 |
| 20260507001608 | 33 | 78 | 8.0 | 14.5 | 0.00 | 0.00 | 0.00 | 70 | 1006.9 |
| 20260507001106 | 33 | 72 | 9.7 | 17.7 | 0.00 | 0.00 | 0.00 | 70 | 1006.9 |
| 20260507000602 | 33 | 47 | 14.5 | 16.1 | 0.00 | 0.00 | 0.00 | 68 | 1006.7 |
| 20260507000057 | 33 | 58 | 6.4 | 12.9 | 0.00 | 0.00 | 0.00 | 68 | 1006.6 |
| 20260506235555 | 33 | 17 | 4.8 | 16.1 | 0.00 | 0.00 | 0.00 | 67 | 1006.6 |
| 20260506235050 | 34 | 143 | 9.7 | 16.1 | 0.00 | 0.00 | 0.00 | 65 | 1006.6 |
| 20260506234548 | 35 | 49 | 8.0 | 11.3 | 0.00 | 0.00 | 0.00 | 57 | 1006.4 |
| 20260506234044 | 35 | 23 | 0.0 | 8.0 | 0.00 | 0.00 | 0.00 | 57 | 1006.3 |
| 20260506233541 | 35 | 34 | 0.0 | 11.3 | 0.00 | 0.00 | 0.00 | 57 | 1006.5 |
| 20260506233038 | 35 | 7 | 3.2 | 8.0 | 0.00 | 0.00 | 0.00 | 56 | 1006.2 |
| 20260506232534 | 35 | 65 | 1.6 | 6.4 | 0.00 | 0.00 | 0.00 | 56 | 1006.2 |
| 20260506232030 | 35 | 37 | 6.4 | 16.1 | 0.00 | 0.00 | 0.00 | 57 | 1006.2 |
| 20260506231528 | 36 | 69 | 4.8 | 14.5 | 0.00 | 0.00 | 0.00 | 57 | 1006.0 |
| 20260506231021 | 36 | 118 | 6.4 | 12.9 | 0.00 | 0.00 | 0.00 | 55 | 1005.9 |
| 20260506230516 | 36 | 56 | 0.0 | 6.4 | 0.00 | 0.00 | 0.00 | 54 | 1005.8 |
| 20260506230014 | 36 | 14 | 6.4 | 8.0 | 0.00 | 0.00 | 0.00 | 54 | 1006.0 |
| 20260506225510 | 36 | 337 | 9.7 | 12.9 | 0.00 | 0.00 | 0.00 | 54 | 1006.0 |
| 20260506225006 | 36 | 35 | 6.4 | 9.7 | 0.00 | 0.00 | 0.00 | 54 | 1005.9 |
| 20260506224503 | 36 | 35 | 6.4 | 11.3 | 0.00 | 0.00 | 0.00 | 54 | 1006.1 |
| 20260506224000 | 36 | 342 | 14.5 | 14.5 | 0.00 | 0.00 | 0.00 | 54 | 1006.0 |
| 20260506223456 | 36 | 46 | 4.8 | 6.4 | 0.00 | 0.00 | 0.00 | 54 | 1005.9 |
| 20260506222953 | 36 | 10 | 0.0 | 6.4 | 0.00 | 0.00 | 0.00 | 54 | 1005.8 |
| 20260506222449 | 36 | 7 | 3.2 | 9.7 | 0.00 | 0.00 | 0.00 | 54 | 1006.0 |
| 20260506221946 | 36 | 326 | 0.0 | 4.8 | 0.00 | 0.00 | 0.00 | 55 | 1006.2 |
| 20260506221443 | 36 | 38 | 4.8 | 14.5 | 0.00 | 0.00 | 0.00 | 54 | 1006.0 |
| 20260506220941 | 36 | 332 | 4.8 | 11.3 | 0.00 | 0.00 | 0.00 | 56 | 1006.2 |
| 20260506220437 | 36 | 353 | 6.4 | 14.5 | 0.00 | 0.00 | 0.00 | 55 | 1006.2 |
| 20260506215933 | 36 | 338 | 8.0 | 9.7 | 0.00 | 0.00 | 0.00 | 56 | 1006.4 |
| 20260506215430 | 36 | 156 | 0.0 | 8.0 | 0.00 | 0.00 | 0.00 | 54 | 1006.1 |
| 20260506214925 | 36 | 56 | 3.2 | 6.4 | 0.00 | 0.00 | 0.00 | 54 | 1006.3 |
| 20260506214422 | 36 | 13 | 6.4 | 11.3 | 0.00 | 0.00 | 0.00 | 53 | 1006.3 |
| 20260506213920 | 36 | 314 | 8.0 | 9.7 | 0.00 | 0.00 | 0.00 | 55 | 1006.5 |
| 20260506213418 | 36 | 330 | 6.4 | 11.3 | 0.00 | 0.00 | 0.00 | 55 | 1006.3 |
| 20260506212915 | 36 | 350 | 9.7 | 12.9 | 0.00 | 0.00 | 0.00 | 56 | 1006.3 |
| 20260506212411 | 35 | 343 | 3.2 | 4.8 | 0.00 | 0.00 | 0.00 | 57 | 1006.3 |
| 20260506211906 | 36 | 348 | 6.4 | 12.9 | 0.00 | 0.00 | 0.00 | 56 | 1006.4 |
| 20260506211402 | 35 | 4 | 3.2 | 8.0 | 0.00 | 0.00 | 0.00 | 57 | 1006.3 |
| 20260506210859 | 35 | 68 | 0.0 | 4.8 | 0.00 | 0.00 | 0.00 | 56 | 1006.6 |
| 20260506210356 | 35 | 323 | 3.2 | 9.7 | 0.00 | 0.00 | 0.00 | 57 | 1006.7 |
| 20260506205853 | 36 | 241 | 6.4 | 8.0 | 0.00 | 0.00 | 0.00 | 57 | 1006.8 |
| 20260506205349 | 36 | 317 | 6.4 | 12.9 | 0.00 | 0.00 | 0.00 | 55 | 1006.8 |
| 20260506204845 | 36 | 17 | 6.4 | 9.7 | 0.00 | 0.00 | 0.00 | 56 | 1006.8 |
| 20260506204343 | 36 | 336 | 8.0 | 9.7 | 0.00 | 0.00 | 0.00 | 56 | 1006.8 |
| 20260506203841 | 36 | 333 | 6.4 | 8.0 | 0.00 | 0.00 | 0.00 | 56 | 1006.9 |
| 20260506203337 | 36 | 304 | 6.4 | 9.7 | 0.00 | 0.00 | 0.00 | 55 | 1006.9 |
| 20260506202834 | 36 | 319 | 6.4 | 9.7 | 0.00 | 0.00 | 0.00 | 56 | 1006.7 |
| 20260506202332 | 36 | 298 | 1.6 | 4.8 | 0.00 | 0.00 | 0.00 | 55 | 1007.1 |
| 20260506201828 | 36 | 305 | 3.2 | 12.9 | 0.00 | 0.00 | 0.00 | 58 | 1007.1 |
| 20260506201326 | 36 | 290 | 3.2 | 6.4 | 0.00 | 0.00 | 0.00 | 56 | 1007.0 |
| 20260506200822 | 36 | 318 | 3.2 | 6.4 | 0.00 | 0.00 | 0.00 | 56 | 1007.3 |
| 20260506200318 | 36 | 334 | 6.4 | 9.7 | 0.00 | 0.00 | 0.00 | 57 | 1007.2 |
| 20260506195814 | 35 | 208 | 0.0 | 4.8 | 0.00 | 0.00 | 0.00 | 57 | 1007.2 |
| 20260506195312 | 35 | 182 | 4.8 | 9.7 | 0.00 | 0.00 | 0.00 | 59 | 1007.2 |
| 20260506194809 | 35 | 165 | 0.0 | 4.8 | 0.00 | 0.00 | 0.00 | 59 | 1007.3 |
| 20260506194305 | 35 | 19 | 3.2 | 6.4 | 0.00 | 0.00 | 0.00 | 58 | 1007.4 |
| 20260506193803 | 35 | 354 | 3.2 | 6.4 | 0.00 | 0.00 | 0.00 | 60 | 1007.5 |
| 20260506193259 | 35 | 229 | 3.2 | 8.0 | 0.00 | 0.00 | 0.00 | 59 | 1007.6 |
| 20260506192756 | 35 | 226 | 4.8 | 11.3 | 0.00 | 0.00 | 0.00 | 58 | 1007.8 |
| 20260506192253 | 35 | 267 | 6.4 | 11.3 | 0.00 | 0.00 | 0.00 | 59 | 1007.8 |
| 20260506191750 | 35 | 231 | 9.7 | 9.7 | 0.00 | 0.00 | 0.00 | 62 | 1007.9 |
| 20260506191246 | 34 | 20 | 3.2 | 6.4 | 0.00 | 0.00 | 0.00 | 63 | 1008.0 |
| 20260506190744 | 34 | 255 | 6.4 | 8.0 | 0.00 | 0.00 | 0.00 | 63 | 1007.9 |
| 20260506190240 | 33 | 212 | 4.8 | 11.3 | 0.00 | 0.00 | 0.00 | 61 | 1008.0 |
| 20260506185737 | 33 | 141 | 4.8 | 4.8 | 0.00 | 0.00 | 0.00 | 61 | 1008.2 |
| 20260506185233 | 33 | 208 | 6.4 | 9.7 | 0.00 | 0.00 | 0.00 | 63 | 1008.2 |
| 20260506184731 | 32 | 153 | 3.2 | 9.7 | 0.00 | 0.00 | 0.00 | 65 | 1008.2 |
| 20260506184228 | 33 | 118 | 4.8 | 12.9 | 0.00 | 0.00 | 0.00 | 64 | 1008.4 |
| 20260506183725 | 33 | 169 | 8.0 | 11.3 | 0.00 | 0.00 | 0.00 | 66 | 1008.4 |
| 20260506183220 | 33 | 208 | 8.0 | 14.5 | 0.00 | 0.00 | 0.00 | 64 | 1008.2 |
| 20260506182718 | 33 | 348 | 3.2 | 6.4 | 0.00 | 0.00 | 0.00 | 66 | 1008.4 |
| 20260506182215 | 33 | 145 | 8.0 | 14.5 | 0.00 | 0.00 | 0.00 | 66 | 1008.7 |
| 20260506181713 | 32 | 239 | 8.0 | 11.3 | 0.00 | 0.00 | 0.00 | 68 | 1008.4 |
| 20260506181210 | 32 | 155 | 9.7 | 17.7 | 0.00 | 0.00 | 0.00 | 66 | 1008.7 |
| 20260506180707 | 32 | 163 | 6.4 | 9.7 | 0.00 | 0.00 | 0.00 | 67 | 1008.7 |
| 20260506180203 | 32 | 192 | 6.4 | 12.9 | 0.00 | 0.00 | 0.00 | 67 | 1008.8 |
| 20260506175659 | 32 | 171 | 8.0 | 9.7 | 0.00 | 0.00 | 0.00 | 69 | 1008.8 |
| 20260506175156 | 32 | 210 | 6.4 | 11.3 | 0.00 | 0.00 | 0.00 | 69 | 1008.7 |
| 20260506174654 | 32 | 185 | 14.5 | 17.7 | 0.00 | 0.00 | 0.00 | 68 | 1008.8 |
| 20260506174150 | 32 | 217 | 6.4 | 14.5 | 0.00 | 0.00 | 0.00 | 68 | 1008.6 |
| 20260506173649 | 31 | 218 | 6.4 | 16.1 | 0.00 | 0.00 | 0.00 | 70 | 1008.9 |
| 20260506173145 | 31 | 165 | 9.7 | 14.5 | 0.00 | 0.00 | 0.00 | 70 | 1009.1 |
| 20260506172642 | 31 | 164 | 6.4 | 16.1 | 0.00 | 0.00 | 0.00 | 70 | 1009.0 |
| 20260506172139 | 31 | 168 | 6.4 | 11.3 | 0.00 | 0.00 | 0.00 | 71 | 1009.1 |
| 20260506171636 | 31 | 151 | 6.4 | 14.5 | 0.00 | 0.00 | 0.00 | 72 | 1008.9 |
| 20260506171134 | 31 | 190 | 12.9 | 24.1 | 0.00 | 0.00 | 0.00 | 73 | 1009.1 |
| 20260506170631 | 31 | 189 | 11.3 | 17.7 | 0.00 | 0.00 | 0.00 | 72 | 1009.0 |
| 20260506170123 | 31 | 166 | 8.0 | 14.5 | 0.00 | 0.00 | 0.00 | 74 | 1009.0 |
| 20260506165621 | 30 | 176 | 14.5 | 16.1 | 0.00 | 0.00 | 0.00 | 76 | 1009.0 |
| 20260506165117 | 30 | 163 | 6.4 | 17.7 | 0.00 | 0.00 | 0.00 | 76 | 1008.9 |
| 20260506164614 | 30 | 173 | 9.7 | 17.7 | 0.00 | 0.00 | 0.00 | 75 | 1009.1 |
| 20260506164112 | 30 | 208 | 4.8 | 17.7 | 0.00 | 0.00 | 0.00 | 75 | 1009.1 |
| 20260506163608 | 30 | 149 | 14.5 | 16.1 | 0.00 | 0.00 | 0.00 | 76 | 1009.2 |
| 20260506163103 | 30 | 156 | 8.0 | 19.3 | 0.00 | 0.00 | 0.00 | 75 | 1009.0 |
| 20260506162600 | 30 | 154 | 8.0 | 14.5 | 0.00 | 0.00 | 0.00 | 76 | 1008.7 |
| 20260506162057 | 30 | 172 | 4.8 | 17.7 | 0.00 | 0.00 | 0.00 | 76 | 1008.9 |
| 20260506161554 | 30 | 127 | 12.9 | 14.5 | 0.00 | 0.00 | 0.00 | 77 | 1008.8 |
| 20260506161051 | 30 | 148 | 11.3 | 17.7 | 0.00 | 0.00 | 0.00 | 76 | 1008.8 |
| 20260506160549 | 30 | 167 | 8.0 | 20.9 | 0.00 | 0.00 | 0.00 | 77 | 1008.7 |
| 20260506160045 | 29 | 165 | 8.0 | 19.3 | 0.00 | 0.00 | 0.00 | 77 | 1008.8 |
| 20260506155544 | 30 | 179 | 6.4 | 20.9 | 0.00 | 0.00 | 0.00 | 76 | 1008.7 |
| 20260506153715 | 29 | 173 | 8.0 | 12.9 | 0.00 | 0.00 | 0.00 | 78 | 1008.8 |
| 20260506153213 | 29 | 164 | 6.4 | 16.1 | 0.00 | 0.00 | 0.00 | 78 | 1008.8 |
| 20260506152710 | 28 | 143 | 4.8 | 11.3 | 0.00 | 0.00 | 0.00 | 79 | 1008.9 |
| 20260506152207 | 28 | 152 | 11.3 | 11.3 | 0.00 | 0.00 | 0.00 | 79 | 1008.8 |
| 20260506151706 | 28 | 133 | 11.3 | 19.3 | 0.00 | 0.00 | 0.00 | 79 | 1009.0 |
| 20260506151202 | 28 | 141 | 11.3 | 17.7 | 0.00 | 0.00 | 0.00 | 79 | 1009.0 |
| 20260506150659 | 28 | 181 | 12.9 | 14.5 | 0.00 | 0.00 | 0.00 | 80 | 1009.1 |
| 20260506150156 | 28 | 150 | 9.7 | 12.9 | 0.00 | 0.00 | 0.00 | 80 | 1009.0 |
| 20260506145653 | 28 | 152 | 4.8 | 14.5 | 0.00 | 0.00 | 0.00 | 80 | 1009.2 |
| 20260506145149 | 28 | 129 | 4.8 | 8.0 | 0.00 | 0.00 | 0.00 | 82 | 1009.1 |
| 20260506144647 | 28 | 174 | 8.0 | 20.9 | 0.00 | 0.00 | 0.00 | 81 | 1009.1 |
| 20260506144144 | 27 | 151 | 9.7 | 14.5 | 0.00 | 0.00 | 0.00 | 82 | 1009.2 |
| 20260506143641 | 27 | 169 | 6.4 | 14.5 | 0.00 | 0.00 | 0.00 | 83 | 1009.3 |
| 20260506143139 | 27 | 157 | 8.0 | 17.7 | 0.00 | 0.00 | 0.00 | 83 | 1009.2 |
| 20260506142638 | 27 | 175 | 8.0 | 16.1 | 0.00 | 0.00 | 0.00 | 85 | 1009.0 |
| 20260506142135 | 27 | 126 | 6.4 | 11.3 | 0.00 | 0.00 | 0.00 | 84 | 1009.6 |
| 20260506141632 | 27 | 168 | 11.3 | 12.9 | 0.00 | 0.00 | 0.00 | 84 | 1009.6 |
| 20260506141131 | 27 | 155 | 6.4 | 12.9 | 0.00 | 0.00 | 0.00 | 84 | 1009.3 |
| 20260506140628 | 27 | 171 | 4.8 | 22.5 | 0.00 | 0.00 | 0.00 | 84 | 1009.3 |
| 20260506140125 | 27 | 183 | 6.4 | 12.9 | 0.00 | 0.00 | 0.00 | 85 | 1009.3 |
| 20260506135622 | 26 | 177 | 6.4 | 9.7 | 0.00 | 0.00 | 0.00 | 85 | 1009.4 |
| 20260506135118 | 26 | 178 | 4.8 | 8.0 | 0.00 | 0.00 | 0.00 | 85 | 1009.3 |
| 20260506134615 | 26 | 183 | 8.0 | 11.3 | 0.00 | 0.00 | 0.00 | 85 | 1009.4 |
| 20260506134110 | 26 | 186 | 4.8 | 6.4 | 0.00 | 0.00 | 0.00 | 86 | 1009.2 |
| 20260506133608 | 26 | 131 | 3.2 | 4.8 | 0.00 | 0.00 | 0.00 | 86 | 1009.2 |
| 20260506133105 | 26 | 142 | 4.8 | 8.0 | 0.00 | 0.00 | 0.00 | 87 | 1009.1 |
| 20260506132602 | 26 | 159 | 4.8 | 6.4 | 0.00 | 0.00 | 0.00 | 87 | 1009.4 |
| 20260506132059 | 26 | 124 | 3.2 | 6.4 | 0.00 | 0.00 | 0.00 | 87 | 1009.2 |
| 20260506131556 | 26 | 156 | 3.2 | 9.7 | 0.00 | 0.00 | 0.00 | 88 | 1009.2 |
| 20260506131052 | 26 | 227 | 3.2 | 9.7 | 0.00 | 0.00 | 0.00 | 88 | 1009.3 |
| 20260506130549 | 26 | 147 | 8.0 | 8.0 | 0.00 | 0.00 | 0.00 | 88 | 1009.2 |
| 20260506130047 | 26 | 138 | 4.8 | 9.7 | 0.00 | 0.00 | 0.00 | 87 | 1009.1 |
| 20260506125545 | 26 | 153 | 6.4 | 8.0 | 0.00 | 0.00 | 0.00 | 87 | 1009.1 |
| 20260506125043 | 26 | 170 | 6.4 | 9.7 | 0.00 | 0.00 | 0.00 | 87 | 1008.8 |
| 20260506124540 | 26 | 186 | 3.2 | 8.0 | 0.00 | 0.00 | 0.00 | 87 | 1008.8 |
| 20260506124038 | 26 | 119 | 3.2 | 8.0 | 0.00 | 0.00 | 0.00 | 87 | 1008.9 |
| 20260506123535 | 26 | 123 | 4.8 | 8.0 | 0.00 | 0.00 | 0.00 | 87 | 1008.8 |
| 20260506123034 | 26 | 156 | 3.2 | 4.8 | 0.00 | 0.00 | 0.00 | 86 | 1008.7 |
| 20260506122530 | 26 | 126 | 3.2 | 4.8 | 0.00 | 0.00 | 0.00 | 86 | 1008.5 |
| 20260506122028 | 26 | 175 | 4.8 | 6.4 | 0.00 | 0.00 | 0.00 | 86 | 1008.2 |
| 20260506121525 | 26 | 175 | 4.8 | 17.7 | 0.00 | 0.00 | 0.00 | 86 | 1008.1 |
| 20260506121021 | 26 | 139 | 11.3 | 14.5 | 0.00 | 0.00 | 0.00 | 86 | 1008.1 |
| 20260506120520 | 26 | 172 | 9.7 | 14.5 | 0.00 | 0.00 | 0.00 | 86 | 1008.0 |
| 20260506120017 | 26 | 161 | 1.6 | 6.4 | 0.00 | 0.00 | 0.00 | 86 | 1007.8 |
| 20260506115514 | 26 | 147 | 4.8 | 9.7 | 0.00 | 0.00 | 0.00 | 87 | 1007.8 |
| 20260506115013 | 26 | 178 | 3.2 | 6.4 | 0.00 | 0.00 | 0.00 | 87 | 1007.8 |
| 20260506114510 | 26 | 195 | 6.4 | 11.3 | 0.00 | 0.00 | 0.00 | 87 | 1007.8 |
| 20260506114008 | 26 | 191 | 1.6 | 6.4 | 0.00 | 0.00 | 0.00 | 87 | 1007.7 |
| 20260506113506 | 26 | 140 | 3.2 | 8.0 | 0.00 | 0.00 | 0.00 | 87 | 1007.4 |
| 20260506113003 | 26 | 166 | 4.8 | 9.7 | 0.00 | 0.00 | 0.00 | 87 | 1007.6 |
| 20260506112459 | 26 | 124 | 6.4 | 12.9 | 0.00 | 0.00 | 0.00 | 87 | 1007.2 |
| 20260506111956 | 26 | 179 | 3.2 | 9.7 | 0.00 | 0.00 | 0.00 | 86 | 1007.4 |
| 20260506111455 | 26 | 166 | 3.2 | 8.0 | 0.00 | 0.00 | 0.00 | 86 | 1007.3 |
| 20260506110951 | 26 | 148 | 1.6 | 6.4 | 0.00 | 0.00 | 0.00 | 86 | 1007.2 |
| 20260506110449 | 26 | 143 | 6.4 | 9.7 | 0.00 | 0.00 | 0.00 | 86 | 1007.3 |
| 20260506105945 | 26 | 146 | 6.4 | 12.9 | 0.00 | 0.00 | 0.00 | 86 | 1007.3 |
| 20260506105442 | 26 | 158 | 4.8 | 12.9 | 0.00 | 0.00 | 0.00 | 86 | 1007.0 |
| 20260506104939 | 26 | 168 | 8.0 | 12.9 | 0.00 | 0.00 | 0.00 | 86 | 1007.0 |
| 20260506104438 | 26 | 144 | 6.4 | 11.3 | 0.00 | 0.00 | 0.00 | 86 | 1006.9 |
| 20260506103936 | 26 | 188 | 6.4 | 8.0 | 0.00 | 0.00 | 0.00 | 86 | 1007.0 |
| 20260506103432 | 26 | 143 | 8.0 | 12.9 | 0.00 | 0.00 | 0.00 | 86 | 1006.7 |
| 20260506102929 | 26 | 191 | 3.2 | 8.0 | 0.00 | 0.00 | 0.00 | 86 | 1006.5 |
| 20260506102427 | 26 | 145 | 6.4 | 6.4 | 0.00 | 0.00 | 0.00 | 86 | 1006.8 |
| 20260506101924 | 26 | 137 | 6.4 | 9.7 | 0.00 | 0.00 | 0.00 | 86 | 1006.7 |
| 20260506101420 | 26 | 146 | 3.2 | 9.7 | 0.00 | 0.00 | 0.00 | 86 | 1006.7 |
| 20260506100918 | 26 | 154 | 6.4 | 14.5 | 0.00 | 0.00 | 0.00 | 86 | 1006.5 |
| 20260506100416 | 26 | 135 | 6.4 | 9.7 | 0.00 | 0.00 | 0.00 | 86 | 1006.4 |
| 20260506095914 | 26 | 146 | 9.7 | 16.1 | 0.00 | 0.00 | 0.00 | 86 | 1006.4 |
| 20260506095412 | 26 | 164 | 6.4 | 9.7 | 0.00 | 0.00 | 0.00 | 86 | 1006.4 |
| 20260506094908 | 26 | 139 | 11.3 | 16.1 | 0.00 | 0.00 | 0.00 | 86 | 1006.4 |
| 20260506094407 | 26 | 139 | 8.0 | 9.7 | 0.00 | 0.00 | 0.00 | 86 | 1006.4 |
| 20260506093904 | 26 | 138 | 9.7 | 14.5 | 0.00 | 0.00 | 0.00 | 86 | 1006.5 |
| 20260506093402 | 26 | 135 | 4.8 | 8.0 | 0.00 | 0.00 | 0.00 | 85 | 1006.5 |
| 20260506092859 | 26 | 166 | 3.2 | 12.9 | 0.00 | 0.00 | 0.00 | 85 | 1006.5 |
| 20260506092357 | 26 | 186 | 8.0 | 20.9 | 0.00 | 0.00 | 0.00 | 86 | 1006.4 |
| 20260506091853 | 26 | 155 | 6.4 | 16.1 | 0.00 | 0.00 | 0.00 | 86 | 1006.4 |
| 20260506091352 | 26 | 172 | 4.8 | 11.3 | 0.00 | 0.00 | 0.00 | 86 | 1006.5 |
| 20260506090848 | 26 | 123 | 9.7 | 12.9 | 0.00 | 0.00 | 0.00 | 86 | 1006.5 |
| 20260506090346 | 26 | 150 | 12.9 | 16.1 | 0.00 | 0.00 | 0.00 | 86 | 1006.6 |
| 20260506085843 | 26 | 155 | 8.0 | 14.5 | 0.00 | 0.00 | 0.00 | 86 | 1006.6 |
| 20260506085339 | 26 | 188 | 14.5 | 20.9 | 0.00 | 0.00 | 0.00 | 86 | 1006.8 |
| 20260506084835 | 26 | 148 | 14.5 | 22.5 | 0.00 | 0.00 | 0.00 | 86 | 1006.6 |
| 20260506084332 | 26 | 156 | 9.7 | 20.9 | 0.00 | 0.00 | 0.00 | 86 | 1006.8 |
| 20260506083829 | 26 | 169 | 9.7 | 12.9 | 0.00 | 0.00 | 0.00 | 86 | 1006.6 |
| 20260506083326 | 26 | 150 | 11.3 | 14.5 | 0.00 | 0.00 | 0.00 | 86 | 1006.6 |
| 20260506082824 | 26 | 151 | 8.0 | 20.9 | 0.00 | 0.00 | 0.00 | 86 | 1006.6 |
| 20260506082320 | 26 | 154 | 9.7 | 17.7 | 0.00 | 0.00 | 0.00 | 85 | 1006.7 |
| 20260506081816 | 26 | 145 | 20.9 | 24.1 | 0.00 | 0.00 | 0.00 | 85 | 1006.8 |
| 20260506081314 | 26 | 168 | 9.7 | 19.3 | 0.00 | 0.00 | 0.00 | 85 | 1006.7 |
| 20260506080812 | 26 | 151 | 16.1 | 17.7 | 0.00 | 0.00 | 0.00 | 86 | 1006.8 |
| 20260506080308 | 26 | 160 | 16.1 | 17.7 | 0.00 | 0.00 | 0.00 | 86 | 1006.9 |
| 20260506073252 | 26 | 162 | 9.7 | 19.3 | 0.00 | 0.00 | 0.00 | 86 | 1007.2 |
| 20260506072749 | 26 | 167 | 9.7 | 17.7 | 0.00 | 0.00 | 0.00 | 86 | 1007.2 |
| 20260506072246 | 26 | 151 | 6.4 | 12.9 | 0.00 | 0.00 | 0.00 | 87 | 1007.2 |
| 20260506071744 | 26 | 155 | 8.0 | 11.3 | 0.00 | 0.00 | 0.00 | 86 | 1007.3 |
| 20260506071242 | 26 | 148 | 11.3 | 16.1 | 0.00 | 0.00 | 0.00 | 86 | 1007.2 |
| 20260506070739 | 26 | 129 | 11.3 | 17.7 | 0.00 | 0.00 | 0.00 | 86 | 1007.1 |
| 20260506070235 | 26 | 141 | 11.3 | 17.7 | 0.00 | 0.00 | 0.00 | 86 | 1007.2 |
| 20260506062212 | 26 | 143 | 17.7 | 22.5 | 0.00 | 0.00 | 0.00 | 85 | 1007.8 |
| 20260506061709 | 26 | 147 | 6.4 | 19.3 | 0.00 | 0.00 | 0.00 | 85 | 1007.8 |
| 20260506061206 | 26 | 144 | 22.5 | 24.1 | 0.00 | 0.00 | 0.00 | 85 | 1007.8 |
| 20260506060704 | 26 | 146 | 11.3 | 16.1 | 0.00 | 0.00 | 0.00 | 85 | 1007.8 |
| 20260506060155 | 26 | 152 | 12.9 | 19.3 | 0.00 | 0.00 | 0.00 | 85 | 1007.8 |
| 20260506051127 | 27 | 169 | 9.7 | 22.5 | 0.00 | 0.00 | 0.00 | 83 | 1008.1 |
| 20260506050626 | 27 | 153 | 9.7 | 22.5 | 0.00 | 0.00 | 0.00 | 83 | 1008.2 |
| 20260506050122 | 27 | 123 | 8.0 | 16.1 | 0.00 | 0.00 | 0.00 | 83 | 1008.5 |
| 20260506045116 | 27 | 149 | 16.1 | 20.9 | 0.00 | 0.00 | 0.00 | 83 | 1008.6 |
| 20260506044614 | 27 | 152 | 14.5 | 24.1 | 0.00 | 0.00 | 0.00 | 83 | 1008.4 |
| 20260506044110 | 27 | 164 | 14.5 | 22.5 | 0.00 | 0.00 | 0.00 | 83 | 1008.4 |
| 20260506043607 | 27 | 140 | 14.5 | 29.0 | 0.00 | 0.00 | 0.00 | 83 | 1008.2 |
| 20260506043106 | 27 | 150 | 8.0 | 24.1 | 0.00 | 0.00 | 0.00 | 82 | 1008.5 |
| 20260506042604 | 27 | 153 | 16.1 | 27.4 | 0.00 | 0.00 | 0.00 | 82 | 1008.5 |
| 20260506042102 | 27 | 148 | 11.3 | 16.1 | 0.00 | 0.00 | 0.00 | 82 | 1008.4 |
| 20260506041601 | 27 | 156 | 9.7 | 16.1 | 0.00 | 0.00 | 0.00 | 82 | 1008.4 |